Regional Weather Roundup
Issued by NWS Goodland, KS

Home | Current Version | Previous Version | Graphics & Text | Print | Product List | Glossary On
Versions: 1 2 3 4 5 6 7 8 9 10 11 12 13 14 15 16 17 18 19 20 21 22 23 24 25 26 27 28 29 30 31 32 33 34 35 36 37 38 39 40 41 42 43 44 45 46 47 48 49 50
000
ASUS43 KGLD 221508
RWRGLD

GOODLAND FORECAST AREA HOURLY WEATHER ROUNDUP
NATIONAL WEATHER SERVICE GOODLAND KS
900 AM MDT TUE AUG 22 2017

...OFFICIAL OBSERVATIONS...

CITY           SKY/WX    TMP DP  RH WIND       PRES   REMARKS
GOODLAND KS    CLOUDY    66  60  81 NE9       30.30S
HILL CITY KS   PTSUNNY   71  63  75 NE14      30.24R
IMPERIAL NEB   SUNNY     66  51  58 E7        30.31R
MCCOOK NEB     SUNNY     66  55  67 E8        30.27R
AKRON CO       MOSUNNY   63  54  72 SE12      30.35S
BURLINGTON CO  PTSUNNY   66  59  78 E12       30.34R
LIMON CO       PTSUNNY   60  55  83 S5        30.39R
$$

...UNOFFICIAL OBSERVATIONS...

CITY           SKY/WX    TMP DP  RH WIND       PRES   REMARKS
LENORA KS        N/A     70  32  24 N6          N/A
NORTON KS      SUNNY     70  54  56 E10       30.25R
TRENTON NEB      N/A     66  32  28 E6          N/A
KIT CARSON CO    N/A     65  57  75 MISG        N/A
YUMA CO        PTSUNNY   61  46  59 E6        30.34R
$$



USA.gov is the U.S. government's official web portal to all federal, state and local government web resources and services.